• In Deutschland
  • Länderverzeichnis
  • Für 7 Tage
  • Wassertemperatur
  • Satellitenkarten
  • Wetterkarte
  • Widgets
  • user-avatar
    Anmelden

    Stündliche Wetter Leonberg

    Heute, 22 September, Samstag

    Zeit Temperatur Niederschläge Wind Luftdruck Luftfeuchtigkeit
    00:00 +11°C° 0 mm 3 m/S 732 mmHg 76%
    01:00 +10°C° 0 mm 2 m/S 733 mmHg 76%
    02:00 +10°C° 0 mm 2 m/S 733 mmHg 77%
    03:00 +9°C° 0 mm 2 m/S 733 mmHg 77%
    04:00 +9°C° 0 mm 2 m/S 734 mmHg 78%
    05:00 +9°C° 0 mm 2 m/S 734 mmHg 78%
    06:00 +9°C° 0 mm 2 m/S 734 mmHg 78%
    07:00 +9°C° 0 mm 2 m/S 734 mmHg 78%
    08:00 +10°C° 0 mm 2 m/S 734 mmHg 71%
    09:00 +12°C° 0 mm 3 m/S 734 mmHg 63%
    10:00 +14°C° 0 mm 3 m/S 734 mmHg 56%
    11:00 +16°C° 0 mm 3 m/S 734 mmHg 51%
    12:00 +17°C° 0 mm 3 m/S 734 mmHg 46%
    13:00 +18°C° 0 mm 3 m/S 734 mmHg 41%
    14:00 +18°C° 0 mm 3 m/S 733 mmHg 41%
    15:00 +18°C° 0 mm 3 m/S 733 mmHg 41%
    16:00 +18°C° 0 mm 3 m/S 733 mmHg 41%
    17:00 +17°C° 0 mm 3 m/S 732 mmHg 45%
    18:00 +16°C° 0 mm 2 m/S 732 mmHg 48%
    19:00 +15°C° 0 mm 1 m/S 732 mmHg 52%
    20:00 +14°C° 0.1 mm 1 m/S 732 mmHg 56%
    21:00 +14°C° 0.1 mm 1 m/S 732 mmHg 60%
    22:00 +13°C° 0.1 mm 1 m/S 732 mmHg 64%
    23:00 +13°C° 0.1 mm 1 m/S 732 mmHg 67%

    Morgen, 23 September, Sonntag

    Zeit Temperatur Niederschläge Wind Luftdruck Luftfeuchtigkeit
    00:00 +13°C° 0.1 mm 1 m/S 732 mmHg 69%
    01:00 +13°C° 0.1 mm 2 m/S 731 mmHg 71%
    02:00 +13°C° 0.4 mm 2 m/S 731 mmHg 73%
    03:00 +13°C° 0.4 mm 2 m/S 730 mmHg 74%
    04:00 +13°C° 0.4 mm 3 m/S 729 mmHg 76%
    05:00 +13°C° 0.3 mm 4 m/S 729 mmHg 77%
    06:00 +14°C° 0.3 mm 4 m/S 729 mmHg 77%
    07:00 +15°C° 0.3 mm 5 m/S 729 mmHg 78%
    08:00 +15°C° 0.3 mm 5 m/S 728 mmHg 79%
    09:00 +16°C° 0.3 mm 6 m/S 728 mmHg 80%
    10:00 +17°C° 0.3 mm 6 m/S 728 mmHg 81%
    11:00 +18°C° 0.1 mm 7 m/S 728 mmHg 77%
    12:00 +21°C° 0.1 mm 7 m/S 728 mmHg 73%
    13:00 +22°C° 0.1 mm 8 m/S 727 mmHg 69%
    14:00 +22°C° 0 mm 8 m/S 726 mmHg 68%
    15:00 +23°C° 0 mm 7 m/S 725 mmHg 67%
    16:00 +23°C° 0 mm 7 m/S 725 mmHg 66%
    17:00 +22°C° 0.7 mm 8 m/S 724 mmHg 68%
    18:00 +22°C° 0.7 mm 9 m/S 723 mmHg 69%
    19:00 +21°C° 0.7 mm 10 m/S 723 mmHg 71%
    20:00 +18°C° 5.4 mm 9 m/S 724 mmHg 76%
    21:00 +15°C° 5.4 mm 9 m/S 725 mmHg 81%
    22:00 +11°C° 5.4 mm 8 m/S 727 mmHg 86%
    23:00 +10°C° 0.1 mm 7 m/S 729 mmHg 86%

    übermorgen, 24 September, Montag

    Zeit Temperatur Niederschläge Wind Luftdruck Luftfeuchtigkeit
    00:00 +9°C° 0.1 mm 6 m/S 731 mmHg 86%
    01:00 +8°C° 0.1 mm 5 m/S 733 mmHg 85%
    02:00 +8°C° 0 mm 4 m/S 734 mmHg 86%
    03:00 +8°C° 0 mm 3 m/S 736 mmHg 87%
    04:00 +8°C° 0 mm 3 m/S 737 mmHg 88%
    05:00 +8°C° 0 mm 2 m/S 738 mmHg 89%
    06:00 +7°C° 0 mm 2 m/S 738 mmHg 90%
    07:00 +7°C° 0 mm 2 m/S 739 mmHg 91%
    08:00 +8°C° 0 mm 2 m/S 739 mmHg 83%
    09:00 +9°C° 0 mm 2 m/S 740 mmHg 75%
    10:00 +11°C° 0 mm 3 m/S 740 mmHg 68%
    11:00 +12°C° 0 mm 3 m/S 741 mmHg 60%
    12:00 +13°C° 0 mm 3 m/S 741 mmHg 53%
    13:00 +13°C° 0 mm 3 m/S 741 mmHg 46%
    14:00 +13°C° 0 mm 3 m/S 741 mmHg 45%
    15:00 +13°C° 0 mm 3 m/S 740 mmHg 44%
    16:00 +13°C° 0 mm 3 m/S 740 mmHg 43%
    17:00 +13°C° 0 mm 2 m/S 741 mmHg 49%
    18:00 +10°C° 0 mm 2 m/S 741 mmHg 54%
    19:00 +10°C° 0 mm 1 m/S 741 mmHg 59%
    20:00 +9°C° 0 mm 1 m/S 741 mmHg 62%
    21:00 +9°C° 0 mm 1 m/S 742 mmHg 64%
    22:00 +8°C° 0 mm 1 m/S 742 mmHg 67%
    23:00 +8°C° 0 mm 1 m/S 742 mmHg 71%

    25 September, Dienstag

    Zeit Temperatur Niederschläge Wind Luftdruck Luftfeuchtigkeit
    00:00 +7°C° 0 mm 1 m/S 742 mmHg 75%
    01:00 +7°C° 0 mm 1 m/S 743 mmHg 79%
    02:00 +7°C° 0 mm 1 m/S 743 mmHg 82%
    03:00 +6°C° 0 mm 1 m/S 743 mmHg 84%
    04:00 +5°C° 0 mm 2 m/S 743 mmHg 87%
    05:00 +5°C° 0 mm 2 m/S 743 mmHg 87%
    06:00 +5°C° 0 mm 2 m/S 743 mmHg 87%
    07:00 +5°C° 0 mm 2 m/S 743 mmHg 86%
    08:00 +7°C° 0 mm 3 m/S 743 mmHg 76%
    09:00 +9°C° 0 mm 3 m/S 743 mmHg 65%
    10:00 +11°C° 0 mm 4 m/S 743 mmHg 55%
    11:00 +12°C° 0 mm 4 m/S 743 mmHg 51%
    12:00 +13°C° 0 mm 4 m/S 742 mmHg 47%
    13:00 +14°C° 0 mm 4 m/S 742 mmHg 43%
    14:00 +14°C° 0 mm 4 m/S 742 mmHg 44%
    15:00 +14°C° 0 mm 4 m/S 741 mmHg 44%
    16:00 +14°C° 0 mm 4 m/S 741 mmHg 45%
    17:00 +12°C° 0 mm 4 m/S 741 mmHg 51%
    18:00 +10°C° 0 mm 3 m/S 741 mmHg 56%
    19:00 +8°C° 0 mm 3 m/S 741 mmHg 62%
    20:00 +8°C° 0 mm 2 m/S 741 mmHg 63%
    21:00 +7°C° 0 mm 2 m/S 741 mmHg 64%
    22:00 +6°C° 0 mm 2 m/S 741 mmHg 66%
    23:00 +6°C° 0 mm 2 m/S 741 mmHg 67%

    26 September, Mittwoch

    Zeit Temperatur Niederschläge Wind Luftdruck Luftfeuchtigkeit
    00:00 +5°C° 0 mm 2 m/S 740 mmHg 68%
    01:00 +6°C° 0 mm 1 m/S 740 mmHg 69%
    02:00 +5°C° 0 mm 1 m/S 740 mmHg 70%
    03:00 +5°C° 0 mm 1 m/S 740 mmHg 70%
    04:00 +5°C° 0 mm 1 m/S 740 mmHg 71%
    05:00 +5°C° 0 mm 1 m/S 740 mmHg 71%
    06:00 +5°C° 0 mm 1 m/S 740 mmHg 72%
    07:00 +5°C° 0 mm 1 m/S 740 mmHg 72%
    08:00 +8°C° 0 mm 1 m/S 740 mmHg 64%
    09:00 +9°C° 0 mm 2 m/S 740 mmHg 56%
    10:00 +13°C° 0 mm 2 m/S 740 mmHg 49%
    11:00 +15°C° 0 mm 2 m/S 740 mmHg 45%
    12:00 +17°C° 0 mm 2 m/S 740 mmHg 42%
    13:00 +18°C° 0 mm 2 m/S 740 mmHg 38%
    14:00 +20°C° 0 mm 1 m/S 739 mmHg 39%
    15:00 +20°C° 0 mm 1 m/S 739 mmHg 41%
    16:00 +20°C° 0 mm 1 m/S 739 mmHg 42%
    17:00 +18°C° 0 mm 1 m/S 739 mmHg 50%
    18:00 +14°C° 0 mm 1 m/S 738 mmHg 58%
    19:00 +12°C° 0 mm 1 m/S 738 mmHg 66%
    20:00 +11°C° 0 mm 1 m/S 738 mmHg 70%
    21:00 +11°C° 0 mm 1 m/S 738 mmHg 73%
    22:00 +10°C° 0 mm 1 m/S 738 mmHg 76%
    23:00 +10°C° 0 mm 1 m/S 738 mmHg 77%

    27 September, Donnerstag

    Zeit Temperatur Niederschläge Wind Luftdruck Luftfeuchtigkeit
    00:00 +9°C° 0 mm 1 m/S 738 mmHg 79%
    01:00 +9°C° 0 mm 1 m/S 737 mmHg 80%
    02:00 +9°C° 0 mm 1 m/S 737 mmHg 80%
    03:00 +9°C° 0 mm 1 m/S 737 mmHg 80%
    04:00 +9°C° 0 mm 1 m/S 737 mmHg 80%
    05:00 +9°C° 0 mm 1 m/S 737 mmHg 78%
    06:00 +9°C° 0 mm 1 m/S 737 mmHg 77%
    07:00 +9°C° 0 mm 1 m/S 737 mmHg 75%
    08:00 +12°C° 0 mm 1 m/S 737 mmHg 66%
    09:00 +15°C° 0 mm 1 m/S 737 mmHg 56%
    10:00 +19°C° 0 mm 1 m/S 737 mmHg 47%
    11:00 +19°C° 0 mm 2 m/S 736 mmHg 44%
    12:00 +20°C° 0 mm 2 m/S 736 mmHg 40%
    13:00 +22°C° 0 mm 3 m/S 736 mmHg 37%
    14:00 +22°C° 0 mm 3 m/S 736 mmHg 39%
    15:00 +21°C° 0 mm 3 m/S 736 mmHg 41%
    16:00 +21°C° 0 mm 3 m/S 735 mmHg 44%
    17:00 +19°C° 0 mm 2 m/S 735 mmHg 51%
    18:00 +17°C° 0 mm 2 m/S 735 mmHg 59%
    19:00 +14°C° 0 mm 1 m/S 735 mmHg 67%
    20:00 +13°C° 0 mm 1 m/S 735 mmHg 70%
    21:00 +13°C° 0 mm 1 m/S 736 mmHg 73%
    22:00 +12°C° 0 mm 1 m/S 736 mmHg 76%
    23:00 +11°C° 0 mm 0 m/S 736 mmHg 78%
    Mehr zeigen